Location: Tel Aviv
(32.0670°N, 34.7670°E)
Time: 04:08:14
(UTC+03:00)

Tiros 1 - Pass Details

Date: 25 January 2022
Orbit: 629 x 663 km, 48.4° (Epoch: 26 May)

Event Time Altitude Azimuth Distance (km) Brightness Sun altitude
Rises 04:11:05 0° 315° (NW) 2,975 - -31.2°
Reaches altitude 10° 04:13:34 10° 324° (NW) 2,056 - -30.7°
Maximum altitude 04:18:00 39° 33° (NNE) 974 - -29.7°
Exits shadow 04:18:37 37° 52° (NE) 1,004 8.4 -29.6°
Drops below altitude 10° 04:22:23 10° 102° (ESE) 2,029 10.6 -28.8°
Sets 04:24:50 0° 110° (ESE) 2,930 11.7 -28.3°
